,,,PA_Meas_PMT16A,,PR_Meas_QMR101_102,,RH_Meas_QMH101,,SR_Meas_QMS101,,TA_Meas_QMH101,,GenWind,,GenWind,
date,time,status,PA,status,PR,status,RH,status,SR,status,TA,status,DirAvg,status,SpdAvg,
2008-11-11, 00:00:04,VALID,1003.61,VALID,0,VALID,95.3,VALID,0,VALID,23.9548,VALID,344,VALID,0,
2008-11-11, 00:01:04,VALID,1003.59,VALID,0,VALID,95.2923,VALID,0.100563,VALID,23.9761,VALID,344,VALID,0,
2008-11-11, 00:02:04,VALID,1003.58,VALID,0,VALID,95.2695,VALID,0,VALID,23.9353,VALID,344,VALID,0,
2008-11-11, 00:03:04,VALID,1003.56,VALID,0,VALID,95.2618,VALID,0,VALID,23.9159,VALID,344,VALID,0,
2008-11-11, 00:04:04,VALID,1003.56,VALID,0,VALID,95.2313,VALID,0,VALID,23.9177,VALID,344,VALID,0,
2008-11-11, 00:05:04,VALID,1003.56,VALID,0,VALID,95.2084,VALID,0,VALID,23.8769,VALID,344,VALID,0,
2008-11-11, 00:06:04,VALID,1003.56,VALID,0,VALID,95.2008,VALID,0.100563,VALID,23.9,VALID,344,VALID,0,
2008-11-11, 00:07:04,VALID,1003.52,VALID,0,VALID,95.1932,VALID,0,VALID,23.838,VALID,344,VALID,0,
2008-11-11, 00:08:04,VALID,1003.52,VALID,0,VALID,95.2084,VALID,0.100563,VALID,23.838,VALID,344,VALID,0,
2008-11-11, 00:09:04,VALID,1003.51,VALID,0,VALID,95.2618,VALID,0,VALID,23.8398,VALID,344,VALID,0,
2008-11-11, 00:10:04,VALID,1003.48,VALID,0,VALID,95.2923,VALID,0.100563,VALID,23.8611,VALID,344,VALID,0,
2008-11-11, 00:11:04,VALID,1003.46,VALID,0,VALID,95.3686,VALID,0,VALID,23.838,VALID,344,VALID,0.412891,
2008-11-11, 00:12:04,VALID,1003.42,VALID,0,VALID,95.3534,VALID,0,VALID,23.8185,VALID,344,VALID,0.381641,
2008-11-11, 00:13:04,VALID,1003.39,VALID,0,VALID,95.3839,VALID,0,VALID,23.8398,VALID,344,VALID,0.307031,
2008-11-11, 00:14:04,VALID,1003.37,VALID,0,VALID,95.3839,VALID,0.100563,VALID,23.838,VALID,344,VALID,0.372266,
2008-11-11, 00:15:04,VALID,1003.34,VALID,0,VALID,95.3686,VALID,0,VALID,23.8398,VALID,344,VALID,0.246484,
2008-11-11, 00:16:04,VALID,1003.35,VALID,0,VALID,95.3534,VALID,0,VALID,23.8203,VALID,344,VALID,0.316797,
2008-11-11, 00:17:04,VALID,1003.31,VALID,0,VALID,95.3381,VALID,0,VALID,23.8203,VALID,344,VALID,0.388281,
2008-11-11, 00:18:04,VALID,1003.28,VALID,0,VALID,95.361,VALID,0.100563,VALID,23.8203,VALID,344,VALID,0.414844,
2008-11-11, 00:19:04,VALID,1003.27,VALID,0,VALID,95.361,VALID,0.100563,VALID,23.8203,VALID,344,VALID,0.368359,
2008-11-11, 00:20:04,VALID,1003.29,VALID,0,VALID,95.3839,VALID,0.100563,VALID,23.7991,VALID,344,VALID,0.389844,
2008-11-11, 00:21:04,VALID,1003.25,VALID,0,VALID,95.422,VALID,0.100563,VALID,23.8398,VALID,344,VALID,0.408984,
2008-11-11, 00:22:04,VALID,1003.27,VALID,0,VALID,95.3915,VALID,0,VALID,23.8185,VALID,344,VALID,0.00585938,
2008-11-11, 00:23:04,VALID,1003.26,VALID,0,VALID,95.3152,VALID,0.100563,VALID,23.8009,VALID,344,VALID,0,
2008-11-11, 00:24:04,VALID,1003.26,VALID,0,VALID,95.2618,VALID,0,VALID,23.8009,VALID,344,VALID,0,
2008-11-11, 00:25:04,VALID,1003.24,VALID,0,VALID,95.1474,VALID,0.100563,VALID,23.7212,VALID,344,VALID,0,
2008-11-11, 00:26:04,VALID,1003.2,VALID,0,VALID,95.0864,VALID,0.100563,VALID,23.6823,VALID,344,VALID,0,
2008-11-11, 00:27:04,VALID,1003.21,VALID,0,VALID,95.1245,VALID,0.100563,VALID,23.6841,VALID,344,VALID,0.279687,
2008-11-11, 00:28:04,VALID,1003.17,VALID,0,VALID,95.2618,VALID,0.100563,VALID,23.6841,VALID,344,VALID,0.446094,
2008-11-11, 00:29:04,VALID,1003.17,VALID,0,VALID,95.3152,VALID,0.100563,VALID,23.7035,VALID,344,VALID,0.470313,
2008-11-11, 00:30:04,VALID,1003.15,VALID,0,VALID,95.361,VALID,0.100563,VALID,23.7017,VALID,344,VALID,0.363281,
2008-11-11, 00:31:04,VALID,1003.15,VALID,0,VALID,95.5212,VALID,0,VALID,23.7619,VALID,344,VALID,0.291797,
2008-11-11, 00:32:04,VALID,1003.15,VALID,0,VALID,95.4602,VALID,0.100563,VALID,23.7796,VALID,344,VALID,0.3,
2008-11-11, 00:33:04,VALID,1003.15,VALID,0,VALID,95.5136,VALID,0,VALID,23.8203,VALID,344,VALID,0.603516,
2008-11-11, 00:34:04,VALID,1003.13,VALID,0,VALID,95.4831,VALID,0,VALID,23.8398,VALID,346,VALID,0.344141,
2008-11-11, 00:35:04,VALID,1003.11,VALID,0,VALID,95.4373,VALID,0,VALID,23.8398,VALID,346,VALID,0.369141,
2008-11-11, 00:36:04,VALID,1003.1,VALID,0,VALID,95.4602,VALID,0,VALID,23.8185,VALID,353,VALID,0.439844,
2008-11-11, 00:37:04,VALID,1003.11,VALID,0,VALID,95.4144,VALID,0.100563,VALID,23.8203,VALID,353,VALID,0.552344,
2008-11-11, 00:38:04,VALID,1003.09,VALID,0,VALID,95.3915,VALID,0.100563,VALID,23.8203,VALID,353,VALID,0.375781,
2008-11-11, 00:39:04,VALID,1003.04,VALID,0,VALID,95.361,VALID,0,VALID,23.8027,VALID,353,VALID,0.486719,
2008-11-11, 00:40:04,VALID,1003.03,VALID,0,VALID,95.3152,VALID,0,VALID,23.7619,VALID,353,VALID,0.357031,
2008-11-11, 00:41:04,VALID,1003.01,VALID,0,VALID,95.2313,VALID,0,VALID,23.723,VALID,353,VALID,0.389453,
2008-11-11, 00:42:04,VALID,1002.98,VALID,0,VALID,95.2084,VALID,0,VALID,23.6841,VALID,353,VALID,0.316797,
2008-11-11, 00:43:04,VALID,1002.97,VALID,0,VALID,95.3076,VALID,0,VALID,23.7053,VALID,353,VALID,0.367188,
2008-11-11, 00:44:04,VALID,1002.97,VALID,0,VALID,95.4373,VALID,0,VALID,23.6841,VALID,353,VALID,0.479297,
2008-11-11, 00:45:04,VALID,1002.98,VALID,0,VALID,95.5212,VALID,0,VALID,23.7425,VALID,353,VALID,0.457031,
2008-11-11, 00:46:04,VALID,1002.95,VALID,0,VALID,95.5746,VALID,0,VALID,23.8027,VALID,350,VALID,0.673437,
2008-11-11, 00:47:04,VALID,1002.97,VALID,0,VALID,95.5822,VALID,0,VALID,23.8416,VALID,349,VALID,0.653516,
2008-11-11, 00:48:04,VALID,1002.97,VALID,0,VALID,95.567,VALID,0,VALID,23.8398,VALID,350,VALID,0.561328,
2008-11-11, 00:49:04,VALID,1002.99,VALID,0,VALID,95.5517,VALID,0,VALID,23.8593,VALID,354,VALID,0.588672,
2008-11-11, 00:50:04,VALID,1002.96,VALID,0,VALID,95.506,VALID,0,VALID,23.8805,VALID,355,VALID,0.505078,
2008-11-11, 00:51:04,VALID,1002.97,VALID,0,VALID,95.4678,VALID,0,VALID,23.8611,VALID,355,VALID,0.433984,
2008-11-11, 00:52:04,VALID,1002.96,VALID,0,VALID,95.4297,VALID,0,VALID,23.8009,VALID,355,VALID,0.421094,
2008-11-11, 00:53:04,VALID,1002.95,VALID,0,VALID,95.3686,VALID,0,VALID,23.8027,VALID,355,VALID,0.304688,
2008-11-11, 00:54:04,VALID,1002.93,VALID,0,VALID,95.3686,VALID,0,VALID,23.7619,VALID,355,VALID,0.360938,
2008-11-11, 00:55:04,VALID,1002.91,VALID,0,VALID,95.3229,VALID,0,VALID,23.723,VALID,355,VALID,0.414453,
2008-11-11, 00:56:04,VALID,1002.9,VALID,0,VALID,95.2695,VALID,0,VALID,23.7053,VALID,355,VALID,0.409766,
2008-11-11, 00:57:04,VALID,1002.86,VALID,0,VALID,95.2695,VALID,0,VALID,23.6646,VALID,355,VALID,0.428125,
2008-11-11, 00:58:04,VALID,1002.83,VALID,0,VALID,95.3763,VALID,0,VALID,23.6859,VALID,355,VALID,0.400781,
2008-11-11, 00:59:04,VALID,1002.81,VALID,0,VALID,95.4526,VALID,0,VALID,23.7035,VALID,355,VALID,0.369141,
2008-11-11, 01:00:04,VALID,1002.79,VALID,0,VALID,95.5212,VALID,0,VALID,23.723,VALID,355,VALID,0.326172,
2008-11-11, 01:01:04,VALID,1002.76,VALID,0,VALID,95.5365,VALID,0,VALID,23.7425,VALID,355,VALID,0,
2008-11-11, 01:02:04,VALID,1002.72,VALID,0,VALID,95.4526,VALID,0,VALID,23.7017,VALID,355,VALID,0.0777344,
2008-11-11, 01:03:04,VALID,1002.7,VALID,0,VALID,95.4144,VALID,0,VALID,23.6841,VALID,355,VALID,0.13125,
2008-11-11, 01:04:04,VALID,1002.67,VALID,0,VALID,95.4068,VALID,0,VALID,23.6646,VALID,355,VALID,0,
2008-11-11, 01:05:04,VALID,1002.6,VALID,0,VALID,95.4297,VALID,0,VALID,23.6434,VALID,355,VALID,0.25625,
2008-11-11, 01:06:04,VALID,1002.57,VALID,0,VALID,95.4373,VALID,0,VALID,23.6859,VALID,355,VALID,0.301953,
2008-11-11, 01:07:04,VALID,1002.58,VALID,0,VALID,95.4144,VALID,0,VALID,23.6452,VALID,355,VALID,0.216797,
2008-11-11, 01:08:04,VALID,1002.52,VALID,0,VALID,95.4678,VALID,0,VALID,23.6275,VALID,355,VALID,0.258203,
2008-11-11, 01:09:04,VALID,1002.52,VALID,0,VALID,95.4297,VALID,0,VALID,23.6275,VALID,355,VALID,0.242188,
2008-11-11, 01:10:04,VALID,1002.49,VALID,0,VALID,95.422,VALID,0,VALID,23.5673,VALID,355,VALID,0.203906,
2008-11-11, 01:11:04,VALID,1002.45,VALID,0,VALID,95.4297,VALID,0,VALID,23.5496,VALID,355,VALID,0.260938,
2008-11-11, 01:12:04,VALID,1002.45,VALID,0,VALID,95.4373,VALID,0,VALID,23.5496,VALID,355,VALID,0.028125,
2008-11-11, 01:13:04,VALID,1002.42,VALID,0,VALID,95.6204,VALID,0,VALID,23.5478,VALID,355,VALID,0.287891,
2008-11-11, 01:14:04,VALID,1002.37,VALID,0,VALID,95.6204,VALID,0,VALID,23.5885,VALID,355,VALID,0.0710938,
2008-11-11, 01:15:04,VALID,1002.37,VALID,0,VALID,95.7501,VALID,0,VALID,23.6275,VALID,355,VALID,0,
2008-11-11, 01:16:04,VALID,1002.33,VALID,0,VALID,95.7424,VALID,0,VALID,23.6452,VALID,355,VALID,0,
2008-11-11, 01:17:04,VALID,1002.31,VALID,0,VALID,95.628,VALID,0,VALID,23.6452,VALID,355,VALID,0,
2008-11-11, 01:18:04,VALID,1002.28,VALID,0,VALID,95.5136,VALID,0,VALID,23.6275,VALID,355,VALID,0,
2008-11-11, 01:19:04,VALID,1002.29,VALID,0,VALID,95.5288,VALID,0,VALID,23.608,VALID,355,VALID,0,
2008-11-11, 01:20:04,VALID,1002.27,VALID,0,VALID,95.4602,VALID,0,VALID,23.5691,VALID,355,VALID,0,
2008-11-11, 01:21:04,VALID,1002.26,VALID,0,VALID,95.3915,VALID,0,VALID,23.5107,VALID,355,VALID,0.414453,
2008-11-11, 01:22:04,VALID,1002.26,VALID,0,VALID,95.3991,VALID,0,VALID,23.47,VALID,355,VALID,0.4,
2008-11-11, 01:23:04,VALID,1002.25,VALID,0,VALID,95.3686,VALID,0,VALID,23.4311,VALID,355,VALID,0.283203,
2008-11-11, 01:24:04,VALID,1002.23,VALID,0,VALID,95.3457,VALID,0,VALID,23.3939,VALID,355,VALID,0.251172,
2008-11-11, 01:25:04,VALID,1002.23,VALID,0,VALID,95.4602,VALID,0,VALID,23.3921,VALID,355,VALID,0.233594,
2008-11-11, 01:26:04,VALID,1002.23,VALID,0,VALID,95.567,VALID,0,VALID,23.4134,VALID,355,VALID,0.308594,
2008-11-11, 01:27:04,VALID,1002.22,VALID,0,VALID,95.6967,VALID,0,VALID,23.4718,VALID,355,VALID,0.258203,
2008-11-11, 01:28:04,VALID,1002.19,VALID,0,VALID,95.7424,VALID,0,VALID,23.5107,VALID,355,VALID,0.344141,
2008-11-11, 01:29:04,VALID,1002.19,VALID,0,VALID,95.7882,VALID,0,VALID,23.5496,VALID,355,VALID,0.170312,
2008-11-11, 01:30:04,VALID,1002.17,VALID,0,VALID,95.7959,VALID,0,VALID,23.5885,VALID,355,VALID,0.0679687,
2008-11-11, 01:31:04,VALID,1002.16,VALID,0,VALID,95.773,VALID,0,VALID,23.608,VALID,355,VALID,0.203125,
2008-11-11, 01:32:04,VALID,1002.13,VALID,0,VALID,95.7272,VALID,0,VALID,23.608,VALID,355,VALID,0.0273438,
2008-11-11, 01:33:04,VALID,1002.11,VALID,0,VALID,95.6585,VALID,0,VALID,23.5478,VALID,355,VALID,0.00351562,
2008-11-11, 01:34:04,VALID,1002.11,VALID,0,VALID,95.6128,VALID,0,VALID,23.5302,VALID,355,VALID,0,
2008-11-11, 01:35:04,VALID,1002.08,VALID,0,VALID,95.5746,VALID,0,VALID,23.5107,VALID,355,VALID,0,
2008-11-11, 01:36:04,VALID,1002.05,VALID,0,VALID,95.5746,VALID,0,VALID,23.47,VALID,355,VALID,0,
2008-11-11, 01:37:04,VALID,1002.08,VALID,0,VALID,95.5899,VALID,0,VALID,23.4912,VALID,355,VALID,0,
2008-11-11, 01:38:04,VALID,1002.04,VALID,0,VALID,95.6662,VALID,0,VALID,23.4894,VALID,355,VALID,0,
2008-11-11, 01:39:04,VALID,1002.01,VALID,0,VALID,95.6814,VALID,0,VALID,23.5107,VALID,355,VALID,0,
2008-11-11, 01:40:04,VALID,1002,VALID,0,VALID,95.6204,VALID,0,VALID,23.5107,VALID,355,VALID,0,
2008-11-11, 01:41:04,VALID,1001.97,VALID,0,VALID,95.5975,VALID,0,VALID,23.4912,VALID,355,VALID,0,
2008-11-11, 01:42:04,VALID,1001.96,VALID,0,VALID,95.5822,VALID,0,VALID,23.4718,VALID,355,VALID,0.349219,
2008-11-11, 01:43:04,VALID,1001.94,VALID,0,VALID,95.6433,VALID,0,VALID,23.4912,VALID,6,VALID,0.666797,
2008-11-11, 01:44:04,VALID,1001.96,VALID,0,VALID,95.6662,VALID,0,VALID,23.5107,VALID,7,VALID,0.475,
2008-11-11, 01:45:04,VALID,1001.93,VALID,0,VALID,95.5822,VALID,0,VALID,23.4718,VALID,7,VALID,0.435156,
2008-11-11, 01:46:04,VALID,1001.91,VALID,0,VALID,95.506,VALID,0,VALID,23.4523,VALID,7,VALID,0.376563,
2008-11-11, 01:47:04,VALID,1001.92,VALID,0,VALID,95.4754,VALID,0,VALID,23.4134,VALID,7,VALID,0.374609,
2008-11-11, 01:48:04,VALID,1001.89,VALID,0,VALID,95.4602,VALID,0,VALID,23.3532,VALID,7,VALID,0.408203,
2008-11-11, 01:49:04,VALID,1001.92,VALID,0,VALID,95.4602,VALID,0,VALID,23.3337,VALID,7,VALID,0.4375,
2008-11-11, 01:50:04,VALID,1001.91,VALID,0,VALID,95.5288,VALID,0,VALID,23.3337,VALID,7,VALID,0.293359,
2008-11-11, 01:51:04,VALID,1001.91,VALID,0,VALID,95.6433,VALID,0,VALID,23.355,VALID,7,VALID,0.235547,
2008-11-11, 01:52:04,VALID,1001.89,VALID,0,VALID,95.6967,VALID,0,VALID,23.3939,VALID,7,VALID,0.176953,
2008-11-11, 01:53:04,VALID,1001.9,VALID,0,VALID,95.8187,VALID,0,VALID,23.4523,VALID,7,VALID,0.251953,
2008-11-11, 01:54:04,VALID,1001.86,VALID,0,VALID,95.8874,VALID,0.100563,VALID,23.5089,VALID,7,VALID,0.223047,
2008-11-11, 01:55:04,VALID,1001.84,VALID,0,VALID,95.8645,VALID,0,VALID,23.5673,VALID,7,VALID,0,
2008-11-11, 01:56:04,VALID,1001.83,VALID,0,VALID,95.8798,VALID,0,VALID,23.5673,VALID,7,VALID,0,
2008-11-11, 01:57:04,VALID,1001.8,VALID,0,VALID,95.8569,VALID,0,VALID,23.6062,VALID,7,VALID,0,
2008-11-11, 01:58:04,VALID,1001.77,VALID,0,VALID,95.8187,VALID,0,VALID,23.6257,VALID,7,VALID,0,
2008-11-11, 01:59:04,VALID,1001.76,VALID,0,VALID,95.7196,VALID,0.100563,VALID,23.6062,VALID,7,VALID,0,
2008-11-11, 02:00:04,VALID,1001.72,VALID,0,VALID,95.6585,VALID,0.100563,VALID,23.5478,VALID,7,VALID,0,
2008-11-11, 02:01:04,VALID,1001.73,VALID,0,VALID,95.6204,VALID,0.100563,VALID,23.5071,VALID,7,VALID,0,
2008-11-11, 02:02:04,VALID,1001.75,VALID,0,VALID,95.6128,VALID,0.100563,VALID,23.5089,VALID,7,VALID,0,
2008-11-11, 02:03:04,VALID,1001.74,VALID,0,VALID,95.6662,VALID,0.100563,VALID,23.4877,VALID,7,VALID,0,
2008-11-11, 02:04:04,VALID,1001.76,VALID,0,VALID,95.6738,VALID,0.100563,VALID,23.4894,VALID,7,VALID,0,
2008-11-11, 02:05:04,VALID,1001.76,VALID,0,VALID,95.689,VALID,0.100563,VALID,23.4682,VALID,7,VALID,0,
2008-11-11, 02:06:04,VALID,1001.77,VALID,0,VALID,95.6738,VALID,0.100563,VALID,23.4682,VALID,7,VALID,0,
2008-11-11, 02:07:04,VALID,1001.79,VALID,0,VALID,95.6814,VALID,0.100563,VALID,23.47,VALID,7,VALID,0,
2008-11-11, 02:08:04,VALID,1001.81,VALID,0,VALID,95.6738,VALID,0,VALID,23.4487,VALID,7,VALID,0.208203,
2008-11-11, 02:09:04,VALID,1001.76,VALID,0,VALID,95.6967,VALID,0,VALID,23.4505,VALID,7,VALID,0.309375,
2008-11-11, 02:10:04,VALID,1001.75,VALID,0,VALID,95.689,VALID,0,VALID,23.4311,VALID,7,VALID,0.370703,
2008-11-11, 02:11:04,VALID,1001.76,VALID,0,VALID,95.6967,VALID,0,VALID,23.4505,VALID,7,VALID,0.373828,
2008-11-11, 02:12:04,VALID,1001.76,VALID,0,VALID,95.7272,VALID,0,VALID,23.4523,VALID,7,VALID,0.419141,
2008-11-11, 02:13:04,VALID,1001.77,VALID,0,VALID,95.7806,VALID,0,VALID,23.4505,VALID,7,VALID,0.391797,
2008-11-11, 02:14:04,VALID,1001.78,VALID,0,VALID,95.8264,VALID,0,VALID,23.4912,VALID,7,VALID,0.377344,
2008-11-11, 02:15:04,VALID,1001.79,VALID,0,VALID,95.834,VALID,0,VALID,23.47,VALID,7,VALID,0.408984,
2008-11-11, 02:16:04,VALID,1001.8,VALID,0,VALID,95.8569,VALID,0,VALID,23.5302,VALID,7,VALID,0.431641,
2008-11-11, 02:17:04,VALID,1001.8,VALID,0,VALID,95.9027,VALID,0,VALID,23.5478,VALID,7,VALID,0.339453,
2008-11-11, 02:18:04,VALID,1001.8,VALID,0,VALID,95.9255,VALID,0,VALID,23.6098,VALID,7,VALID,0.183203,
2008-11-11, 02:19:04,VALID,1001.81,VALID,0,VALID,95.9103,VALID,0,VALID,23.608,VALID,7,VALID,0.202344,
2008-11-11, 02:20:04,VALID,1001.78,VALID,0,VALID,95.8645,VALID,0,VALID,23.6275,VALID,6,VALID,0.28125,
2008-11-11, 02:21:04,VALID,1001.77,VALID,0,VALID,95.8111,VALID,0,VALID,23.5868,VALID,6,VALID,0.225,
2008-11-11, 02:22:04,VALID,1001.75,VALID,0,VALID,95.7424,VALID,0,VALID,23.5478,VALID,6,VALID,0.284375,
2008-11-11, 02:23:04,VALID,1001.75,VALID,0,VALID,95.7501,VALID,0,VALID,23.5496,VALID,6,VALID,0.339063,
2008-11-11, 02:24:04,VALID,1001.76,VALID,0,VALID,95.7501,VALID,0,VALID,23.5302,VALID,6,VALID,0.395312,
2008-11-11, 02:25:04,VALID,1001.72,VALID,0,VALID,95.7348,VALID,0,VALID,23.5107,VALID,6,VALID,0.407031,
2008-11-11, 02:26:04,VALID,1001.7,VALID,0,VALID,95.6967,VALID,0,VALID,23.4718,VALID,6,VALID,0.464063,
2008-11-11, 02:27:04,VALID,1001.69,VALID,0,VALID,95.6738,VALID,0,VALID,23.4311,VALID,6,VALID,0.494531,
2008-11-11, 02:28:04,VALID,1001.68,VALID,0,VALID,95.6967,VALID,0,VALID,23.4116,VALID,6,VALID,0.483594,
2008-11-11, 02:29:04,VALID,1001.67,VALID,0,VALID,95.7196,VALID,0,VALID,23.3921,VALID,6,VALID,0.312891,
2008-11-11, 02:30:04,VALID,1001.65,VALID,0,VALID,95.7348,VALID,0,VALID,23.3939,VALID,6,VALID,0.328125,
2008-11-11, 02:31:04,VALID,1001.65,VALID,0,VALID,95.7424,VALID,0,VALID,23.3727,VALID,6,VALID,0.239453,
2008-11-11, 02:32:04,VALID,1001.62,VALID,0,VALID,95.7806,VALID,0,VALID,23.3727,VALID,6,VALID,0.266016,
2008-11-11, 02:33:04,VALID,1001.62,VALID,0,VALID,95.7959,VALID,0,VALID,23.3921,VALID,6,VALID,0.198828,
2008-11-11, 02:34:04,VALID,1001.56,VALID,0,VALID,95.773,VALID,0,VALID,23.3727,VALID,6,VALID,0,
2008-11-11, 02:35:04,VALID,1001.57,VALID,0,VALID,95.773,VALID,0,VALID,23.3727,VALID,6,VALID,0,
2008-11-11, 02:36:04,VALID,1001.57,VALID,0,VALID,95.7348,VALID,0,VALID,23.3532,VALID,6,VALID,0,
2008-11-11, 02:37:04,VALID,1001.54,VALID,0,VALID,95.7272,VALID,0,VALID,23.3143,VALID,6,VALID,0,
2008-11-11, 02:38:04,VALID,1001.55,VALID,0,VALID,95.7424,VALID,0,VALID,23.3143,VALID,6,VALID,0,
2008-11-11, 02:39:04,VALID,1001.53,VALID,0,VALID,95.9027,VALID,0,VALID,23.3921,VALID,6,VALID,0,
2008-11-11, 02:40:04,VALID,1001.49,VALID,0,VALID,95.8874,VALID,0,VALID,23.4116,VALID,6,VALID,0,
2008-11-11, 02:41:04,VALID,1001.47,VALID,0,VALID,95.8569,VALID,0,VALID,23.4116,VALID,6,VALID,0,
2008-11-11, 02:42:04,VALID,1001.5,VALID,0,VALID,95.8111,VALID,0,VALID,23.3727,VALID,6,VALID,0,
2008-11-11, 02:43:04,VALID,1001.47,VALID,0,VALID,95.895,VALID,0,VALID,23.3921,VALID,6,VALID,0,
2008-11-11, 02:44:04,VALID,1001.45,VALID,0,VALID,95.8874,VALID,0,VALID,23.4328,VALID,6,VALID,0,
2008-11-11, 02:45:04,VALID,1001.39,VALID,0,VALID,95.8721,VALID,0,VALID,23.3921,VALID,6,VALID,0,
2008-11-11, 02:46:04,VALID,1001.37,VALID,0,VALID,95.8645,VALID,0,VALID,23.3921,VALID,6,VALID,0,
2008-11-11, 02:47:04,VALID,1001.37,VALID,0,VALID,95.8798,VALID,0,VALID,23.4311,VALID,6,VALID,0,
2008-11-11, 02:48:04,VALID,1001.36,VALID,0,VALID,95.9027,VALID,0,VALID,23.4311,VALID,6,VALID,0,
2008-11-11, 02:49:04,VALID,1001.34,VALID,0,VALID,95.834,VALID,0,VALID,23.4328,VALID,6,VALID,0,
2008-11-11, 02:50:04,VALID,1001.36,VALID,0,VALID,95.9027,VALID,0,VALID,23.4311,VALID,6,VALID,0,
2008-11-11, 02:51:04,VALID,1001.35,VALID,0,VALID,95.7882,VALID,0,VALID,23.3904,VALID,6,VALID,0,
2008-11-11, 02:52:04,VALID,1001.38,VALID,0,VALID,95.7272,VALID,0,VALID,23.3532,VALID,6,VALID,0,
2008-11-11, 02:53:04,VALID,1001.4,VALID,0,VALID,95.8035,VALID,0,VALID,23.3532,VALID,6,VALID,0,
2008-11-11, 02:54:04,VALID,1001.4,VALID,0,VALID,95.834,VALID,0,VALID,23.332,VALID,6,VALID,0,
2008-11-11, 02:55:04,VALID,1001.43,VALID,0,VALID,95.8264,VALID,0,VALID,23.3337,VALID,6,VALID,0,
2008-11-11, 02:56:04,VALID,1001.43,VALID,0,VALID,95.8569,VALID,0,VALID,23.3727,VALID,6,VALID,0.0421875,
2008-11-11, 02:57:04,VALID,1001.42,VALID,0,VALID,95.9255,VALID,0,VALID,23.3921,VALID,6,VALID,0.427734,
2008-11-11, 02:58:04,VALID,1001.42,VALID,0,VALID,95.9332,VALID,0,VALID,23.4116,VALID,5,VALID,0.524609,
2008-11-11, 02:59:04,VALID,1001.43,VALID,0,VALID,95.9332,VALID,0,VALID,23.4134,VALID,338,VALID,0.538672,
2008-11-11, 03:00:04,VALID,1001.41,VALID,0,VALID,95.8645,VALID,0,VALID,23.3921,VALID,340,VALID,0.533984,
2008-11-11, 03:01:04,VALID,1001.4,VALID,0,VALID,95.8416,VALID,0,VALID,23.3727,VALID,342,VALID,0.427344,
2008-11-11, 03:02:04,VALID,1001.38,VALID,0,VALID,95.8874,VALID,0,VALID,23.3727,VALID,342,VALID,0.375,
2008-11-11, 03:03:04,VALID,1001.39,VALID,0,VALID,95.9789,VALID,0,VALID,23.4311,VALID,339,VALID,0.442578,
2008-11-11, 03:04:04,VALID,1001.38,VALID,0,VALID,95.9561,VALID,0,VALID,23.4505,VALID,339,VALID,0.325391,
2008-11-11, 03:05:04,VALID,1001.41,VALID,0,VALID,95.9332,VALID,0,VALID,23.4293,VALID,339,VALID,0.411719,
2008-11-11, 03:06:04,VALID,1001.4,VALID,0,VALID,95.9255,VALID,0,VALID,23.4505,VALID,340,VALID,0.402734,
2008-11-11, 03:07:04,VALID,1001.42,VALID,0,VALID,95.9103,VALID,0,VALID,23.4311,VALID,341,VALID,0.360938,
2008-11-11, 03:08:04,VALID,1001.43,VALID,0,VALID,95.8874,VALID,0,VALID,23.4523,VALID,341,VALID,0.451562,
2008-11-11, 03:09:04,VALID,1001.41,VALID,0,VALID,95.8874,VALID,0,VALID,23.4311,VALID,342,VALID,0.402344,
2008-11-11, 03:10:04,VALID,1001.43,VALID,0,VALID,95.9027,VALID,0,VALID,23.4311,VALID,342,VALID,0.329688,
2008-11-11, 03:11:04,VALID,1001.41,VALID,0,VALID,95.9332,VALID,0,VALID,23.4505,VALID,342,VALID,0.459375,
2008-11-11, 03:12:04,VALID,1001.37,VALID,0,VALID,95.9637,VALID,0,VALID,23.47,VALID,342,VALID,0.420703,
2008-11-11, 03:13:04,VALID,1001.37,VALID,0,VALID,95.9561,VALID,0,VALID,23.47,VALID,342,VALID,0.253516,
2008-11-11, 03:14:04,VALID,1001.34,VALID,0,VALID,95.9179,VALID,0,VALID,23.4682,VALID,342,VALID,0.293359,
2008-11-11, 03:15:04,VALID,1001.3,VALID,0,VALID,95.8721,VALID,0,VALID,23.4505,VALID,342,VALID,0.248828,
2008-11-11, 03:16:04,VALID,1001.26,VALID,0,VALID,95.8264,VALID,0,VALID,23.4311,VALID,342,VALID,0.103516,
2008-11-11, 03:17:04,VALID,1001.27,VALID,0,VALID,95.8187,VALID,0,VALID,23.4311,VALID,342,VALID,0.0015625,
2008-11-11, 03:18:04,VALID,1001.21,VALID,0,VALID,95.8035,VALID,0,VALID,23.3921,VALID,342,VALID,0,
2008-11-11, 03:19:04,VALID,1001.25,VALID,0,VALID,95.7653,VALID,0,VALID,23.3727,VALID,342,VALID,0.314844,
2008-11-11, 03:20:04,VALID,1001.24,VALID,0,VALID,95.7424,VALID,0,VALID,23.3532,VALID,342,VALID,0.293359,
2008-11-11, 03:21:04,VALID,1001.23,VALID,0,VALID,95.6967,VALID,0,VALID,23.2931,VALID,342,VALID,0.347266,
2008-11-11, 03:22:04,VALID,1001.21,VALID,0,VALID,95.7043,VALID,0,VALID,23.2541,VALID,342,VALID,0.341406,
2008-11-11, 03:23:04,VALID,1001.2,VALID,0,VALID,95.689,VALID,0,VALID,23.2347,VALID,342,VALID,0.442187,
2008-11-11, 03:24:04,VALID,1001.22,VALID,0,VALID,95.6738,VALID,0,VALID,23.217,VALID,342,VALID,0.424609,
2008-11-11, 03:25:04,VALID,1001.19,VALID,0,VALID,95.7348,VALID,0,VALID,23.1975,VALID,342,VALID,0.405469,
2008-11-11, 03:26:04,VALID,1001.24,VALID,0,VALID,95.7577,VALID,0,VALID,23.1975,VALID,342,VALID,0.464453,
2008-11-11, 03:27:04,VALID,1001.22,VALID,0,VALID,95.9027,VALID,0,VALID,23.2771,VALID,342,VALID,0.481641,
2008-11-11, 03:28:04,VALID,1001.21,VALID,0,VALID,95.8721,VALID,0,VALID,23.2559,VALID,342,VALID,0.483203,
2008-11-11, 03:29:04,VALID,1001.2,VALID,0,VALID,95.834,VALID,0,VALID,23.217,VALID,342,VALID,0.326953,
2008-11-11, 03:30:04,VALID,1001.21,VALID,0,VALID,95.7806,VALID,0,VALID,23.2187,VALID,342,VALID,0.280078,
2008-11-11, 03:31:04,VALID,1001.21,VALID,0,VALID,95.7653,VALID,0,VALID,23.1798,VALID,342,VALID,0.247266,
2008-11-11, 03:32:04,VALID,1001.22,VALID,0,VALID,95.7577,VALID,0,VALID,23.1391,VALID,342,VALID,0.00195313,
2008-11-11, 03:33:04,VALID,1001.23,VALID,0,VALID,95.773,VALID,0,VALID,23.1603,VALID,342,VALID,0,
2008-11-11, 03:34:04,VALID,1001.22,VALID,0,VALID,95.7959,VALID,0,VALID,23.1391,VALID,342,VALID,0,
2008-11-11, 03:35:04,VALID,1001.21,VALID,0,VALID,95.9484,VALID,0,VALID,23.1975,VALID,342,VALID,0,
2008-11-11, 03:36:04,VALID,1001.2,VALID,0,VALID,96.0705,VALID,0,VALID,23.2559,VALID,342,VALID,0,
2008-11-11, 03:37:04,VALID,1001.18,VALID,0,VALID,96.101,VALID,0,VALID,23.3532,VALID,342,VALID,0.00703125,
2008-11-11, 03:38:04,VALID,1001.18,VALID,0,VALID,96.0781,VALID,0,VALID,23.4116,VALID,342,VALID,0.269141,
2008-11-11, 03:39:04,VALID,1001.19,VALID,0,VALID,96.1086,VALID,0,VALID,23.47,VALID,342,VALID,0.296875,
2008-11-11, 03:40:04,VALID,1001.19,VALID,0,VALID,96.0629,VALID,0,VALID,23.4718,VALID,342,VALID,0.383984,
2008-11-11, 03:41:04,VALID,1001.17,VALID,0,VALID,95.8569,VALID,0,VALID,23.3727,VALID,342,VALID,0.435156,
2008-11-11, 03:42:04,VALID,1001.18,VALID,0,VALID,95.7501,VALID,0,VALID,23.316,VALID,342,VALID,0.453906,
2008-11-11, 03:43:04,VALID,1001.2,VALID,0,VALID,95.6967,VALID,0,VALID,23.2577,VALID,342,VALID,0.423828,
2008-11-11, 03:44:04,VALID,1001.2,VALID,0,VALID,95.7806,VALID,0,VALID,23.2382,VALID,348,VALID,0.574219,
2008-11-11, 03:45:04,VALID,1001.19,VALID,0,VALID,95.8416,VALID,0,VALID,23.2382,VALID,351,VALID,0.553906,
2008-11-11, 03:46:04,VALID,1001.2,VALID,0,VALID,95.8874,VALID,0,VALID,23.2382,VALID,351,VALID,0.362891,
2008-11-11, 03:47:04,VALID,1001.24,VALID,0,VALID,95.9179,VALID,0,VALID,23.2364,VALID,351,VALID,0.407813,
2008-11-11, 03:48:04,VALID,1001.21,VALID,0,VALID,95.9103,VALID,0,VALID,23.217,VALID,351,VALID,0.155469,